Time,TemperatureF,DewpointF,PressureIn,WindDirection,WindDirectionDegrees,WindSpeedMPH,WindSpeedGustMPH,Humidity,HourlyPrecipIn,Conditions,Clouds,dailyrainin,SoftwareType,DateUTC
2013-05-25 00:01:00,58.8,42.7,30.12,NNW,343,3.0,6.0,55,0.00,,CLR,0.00,VWS V14.00,2013-05-25 04:01:00,
2013-05-25 00:06:00,58.4,42.8,30.12,North,9,1.0,6.0,56,0.00,,CLR,0.00,VWS V14.00,2013-05-25 04:06:00,
2013-05-25 00:11:00,58.0,42.9,30.12,North,0,7.0,7.0,57,0.00,,CLR,0.00,VWS V14.00,2013-05-25 04:11:00,
2013-05-25 00:16:00,57.6,42.5,30.11,NNE,32,8.0,9.0,57,0.00,,CLR,0.00,VWS V14.00,2013-05-25 04:16:00,
2013-05-25 00:21:00,57.6,43.0,30.11,NW,325,2.0,12.0,58,0.00,,CLR,0.00,VWS V14.00,2013-05-25 04:21:00,
2013-05-25 00:26:00,57.8,42.2,30.11,North,1,0.0,12.0,56,0.00,,CLR,0.00,VWS V14.00,2013-05-25 04:26:00,
2013-05-25 00:31:00,57.9,42.3,30.11,SE,128,0.0,1.0,56,0.00,,CLR,0.00,VWS V14.00,2013-05-25 04:31:00,
2013-05-25 00:36:00,57.6,43.0,30.11,NNE,14,0.0,2.0,58,0.00,,CLR,0.00,VWS V14.00,2013-05-25 04:36:00,
2013-05-25 00:41:00,57.3,42.2,30.11,North,351,4.0,4.0,57,0.00,,CLR,0.00,VWS V14.00,2013-05-25 04:41:00,
2013-05-25 00:46:00,56.8,43.1,30.12,NNW,340,3.0,7.0,60,0.00,,CLR,0.00,VWS V14.00,2013-05-25 04:46:00,
2013-05-25 00:51:00,56.3,42.6,30.12,North,0,5.0,7.0,60,0.00,,CLR,0.00,VWS V14.00,2013-05-25 04:51:00,
2013-05-25 00:56:00,55.9,42.2,30.12,NNW,340,2.0,7.0,60,0.00,,CLR,0.00,VWS V14.00,2013-05-25 04:56:00,
2013-05-25 01:01:00,55.9,41.8,30.12,North,1,0.0,4.0,59,0.00,,CLR,0.00,VWS V14.00,2013-05-25 05:01:00,
2013-05-25 01:06:00,55.9,42.2,30.12,North,359,0.0,4.0,60,0.00,,CLR,0.00,VWS V14.00,2013-05-25 05:06:00,
2013-05-25 01:11:00,55.8,40.8,30.12,North,359,0.0,4.0,57,0.00,,CLR,0.00,VWS V14.00,2013-05-25 05:11:00,
2013-05-25 01:16:00,55.7,41.2,30.13,North,359,0.0,4.0,58,0.00,,CLR,0.00,VWS V14.00,2013-05-25 05:16:00,
2013-05-25 01:21:00,55.5,41.9,30.13,NNW,333,0.0,4.0,60,0.00,,CLR,0.00,VWS V14.00,2013-05-25 05:21:00,
2013-05-25 01:26:00,55.0,41.0,30.13,NNW,330,1.0,5.0,59,0.00,,CLR,0.00,VWS V14.00,2013-05-25 05:26:00,
2013-05-25 01:31:00,54.6,41.0,30.12,NNW,340,1.0,3.0,60,0.00,,CLR,0.00,VWS V14.00,2013-05-25 05:31:00,
2013-05-25 01:36:00,54.3,40.7,30.12,North,354,0.0,3.0,60,0.00,,CLR,0.00,VWS V14.00,2013-05-25 05:36:00,
2013-05-25 01:41:00,54.3,41.2,30.12,NNW,337,0.0,3.0,61,0.00,,CLR,0.00,VWS V14.00,2013-05-25 05:41:00,
2013-05-25 01:46:00,54.1,41.4,30.11,NNW,337,0.0,3.0,62,0.00,,CLR,0.00,VWS V14.00,2013-05-25 05:46:00,
2013-05-25 01:51:00,53.8,40.7,30.11,NNW,336,0.0,3.0,61,0.00,,CLR,0.00,VWS V14.00,2013-05-25 05:51:00,
2013-05-25 01:56:00,53.9,39.9,30.11,NNE,17,0.0,3.0,59,0.00,,CLR,0.00,VWS V14.00,2013-05-25 05:56:00,
2013-05-25 02:01:00,54.3,40.3,30.11,North,359,0.0,3.0,59,0.00,,CLR,0.00,VWS V14.00,2013-05-25 06:01:00,
2013-05-25 02:06:00,54.6,41.0,30.11,NNW,335,0.0,6.0,60,0.00,,CLR,0.00,VWS V14.00,2013-05-25 06:06:00,
2013-05-25 02:11:00,54.6,40.6,30.11,NW,314,2.0,6.0,59,0.00,,CLR,0.00,VWS V14.00,2013-05-25 06:11:00,
2013-05-25 02:16:00,54.5,40.5,30.11,NNW,342,1.0,6.0,59,0.00,,CLR,0.00,VWS V14.00,2013-05-25 06:16:00,
2013-05-25 02:21:00,54.4,41.2,30.11,NNW,340,0.0,6.0,61,0.00,,CLR,0.00,VWS V14.00,2013-05-25 06:21:00,
2013-05-25 02:26:00,53.9,40.8,30.11,NNW,328,5.0,6.0,61,0.00,,CLR,0.00,VWS V14.00,2013-05-25 06:26:00,
2013-05-25 02:31:00,53.6,40.9,30.11,NNW,345,5.0,7.0,62,0.00,,CLR,0.00,VWS V14.00,2013-05-25 06:31:00,
2013-05-25 02:36:00,53.4,40.7,30.11,North,3,4.0,9.0,62,0.00,,CLR,0.00,VWS V14.00,2013-05-25 06:36:00,
2013-05-25 02:41:00,53.2,41.0,30.11,NNW,334,4.0,9.0,63,0.00,,CLR,0.00,VWS V14.00,2013-05-25 06:41:00,
2013-05-25 02:46:00,53.1,40.8,30.11,NW,323,3.0,10.0,63,0.00,,CLR,0.00,VWS V14.00,2013-05-25 06:46:00,
2013-05-25 02:51:00,53.1,40.8,30.11,NNW,335,0.0,10.0,63,0.00,,CLR,0.00,VWS V14.00,2013-05-25 06:51:00,
2013-05-25 02:56:00,53.1,40.4,30.11,NNW,336,3.0,10.0,62,0.00,,CLR,0.00,VWS V14.00,2013-05-25 06:56:00,
2013-05-25 03:01:00,53.2,40.5,30.11,NNW,328,0.0,4.0,62,0.00,,CLR,0.00,VWS V14.00,2013-05-25 07:01:00,
2013-05-25 03:06:00,53.2,41.3,30.11,NW,326,0.0,4.0,64,0.00,,CLR,0.00,VWS V14.00,2013-05-25 07:06:00,
2013-05-25 03:11:00,52.8,41.0,30.11,ENE,59,0.0,4.0,64,0.00,,CLR,0.00,VWS V14.00,2013-05-25 07:11:00,
2013-05-25 03:16:00,52.6,41.2,30.11,ENE,59,0.0,4.0,65,0.00,,CLR,0.00,VWS V14.00,2013-05-25 07:16:00,
2013-05-25 03:21:00,52.5,40.7,30.11,SE,131,2.0,4.0,64,0.00,,CLR,0.00,VWS V14.00,2013-05-25 07:21:00,
2013-05-25 03:26:00,52.6,41.6,30.11,SE,131,0.0,4.0,66,0.00,,CLR,0.00,VWS V14.00,2013-05-25 07:26:00,
2013-05-25 03:31:00,52.4,42.2,30.12,SE,131,0.0,0.0,68,0.00,,CLR,0.00,VWS V14.00,2013-05-25 07:31:00,
2013-05-25 03:36:00,51.9,42.8,30.12,SE,131,0.0,0.0,71,0.00,,CLR,0.00,VWS V14.00,2013-05-25 07:36:00,
2013-05-25 03:41:00,51.4,42.7,30.12,SE,131,0.0,1.0,72,0.00,,CLR,0.00,VWS V14.00,2013-05-25 07:41:00,
2013-05-25 03:46:00,50.8,42.5,30.12,SE,131,0.0,1.0,73,0.00,,CLR,0.00,VWS V14.00,2013-05-25 07:46:00,
2013-05-25 03:51:00,50.4,42.1,30.12,SE,131,0.0,2.0,73,0.00,,CLR,0.00,VWS V14.00,2013-05-25 07:51:00,
2013-05-25 03:56:00,50.2,42.2,30.12,North,0,0.0,3.0,74,0.00,,CLR,0.00,VWS V14.00,2013-05-25 07:56:00,
2013-05-25 04:01:00,49.7,42.1,30.13,North,0,0.0,0.0,75,0.00,,CLR,0.00,VWS V14.00,2013-05-25 08:01:00,
2013-05-25 04:06:00,49.3,41.4,30.13,North,0,0.0,0.0,74,0.00,,CLR,0.00,VWS V14.00,2013-05-25 08:06:00,
2013-05-25 04:11:00,49.2,41.3,30.13,North,0,0.0,0.0,74,0.00,,CLR,0.00,VWS V14.00,2013-05-25 08:11:00,
2013-05-25 04:16:00,49.2,41.6,30.13,North,0,0.0,0.0,75,0.00,,CLR,0.00,VWS V14.00,2013-05-25 08:16:00,
2013-05-25 04:21:00,49.2,41.6,30.13,North,0,0.0,4.0,75,0.00,,CLR,0.00,VWS V14.00,2013-05-25 08:21:00,
2013-05-25 04:26:00,49.0,43.1,30.13,North,0,0.0,4.0,80,0.00,,CLR,0.00,VWS V14.00,2013-05-25 08:26:00,
2013-05-25 04:31:00,48.5,42.3,30.13,North,0,0.0,0.0,79,0.00,,CLR,0.00,VWS V14.00,2013-05-25 08:31:00,
2013-05-25 04:36:00,48.3,41.1,30.13,SW,229,0.0,3.0,76,0.00,,CLR,0.00,VWS V14.00,2013-05-25 08:36:00,
2013-05-25 04:41:00,48.4,41.2,30.13,SW,229,0.0,3.0,76,0.00,,CLR,0.00,VWS V14.00,2013-05-25 08:41:00,
2013-05-25 04:46:00,48.4,41.5,30.13,SW,229,0.0,3.0,77,0.00,,CLR,0.00,VWS V14.00,2013-05-25 08:46:00,
2013-05-25 04:51:00,48.1,41.2,30.13,SW,229,0.0,3.0,77,0.00,,CLR,0.00,VWS V14.00,2013-05-25 08:51:00,
2013-05-25 04:56:00,47.9,41.4,30.13,SW,229,0.0,3.0,78,0.00,,CLR,0.00,VWS V14.00,2013-05-25 08:56:00,
2013-05-25 05:01:00,47.9,41.0,30.13,SW,229,0.0,0.0,77,0.00,,CLR,0.00,VWS V14.00,2013-05-25 09:01:00,
2013-05-25 05:06:00,47.9,42.7,30.13,SW,229,0.0,0.0,82,0.00,,CLR,0.00,VWS V14.00,2013-05-25 09:06:00,
2013-05-25 05:11:00,47.4,41.9,30.13,SW,229,0.0,0.0,81,0.00,,CLR,0.00,VWS V14.00,2013-05-25 09:11:00,
2013-05-25 05:16:00,46.7,40.9,30.13,SW,229,0.0,1.0,80,0.00,,CLR,0.00,VWS V14.00,2013-05-25 09:16:00,
2013-05-25 05:21:00,46.6,41.1,30.13,SW,227,0.0,2.0,81,0.00,,CLR,0.00,VWS V14.00,2013-05-25 09:21:00,
2013-05-25 05:26:00,46.6,41.1,30.13,SW,227,0.0,2.0,81,0.00,,CLR,0.00,VWS V14.00,2013-05-25 09:26:00,
2013-05-25 05:31:00,46.4,40.9,30.14,SW,227,0.0,1.0,81,0.00,,CLR,0.00,VWS V14.00,2013-05-25 09:31:00,
2013-05-25 05:36:00,46.3,40.8,30.14,SW,227,0.0,3.0,81,0.00,,CLR,0.00,VWS V14.00,2013-05-25 09:36:00,
2013-05-25 05:41:00,46.3,41.1,30.14,SW,227,0.0,3.0,82,0.00,,CLR,0.00,VWS V14.00,2013-05-25 09:41:00,
2013-05-25 05:46:00,46.3,41.4,30.14,SW,226,0.0,3.0,83,0.00,,CLR,0.00,VWS V14.00,2013-05-25 09:46:00,
2013-05-25 05:51:00,46.4,41.5,30.14,SW,226,0.0,3.0,83,0.00,,CLR,0.00,VWS V14.00,2013-05-25 09:51:00,
2013-05-25 05:56:00,46.3,42.0,30.14,SW,226,0.0,3.0,85,0.00,,CLR,0.00,VWS V14.00,2013-05-25 09:56:00,
2013-05-25 06:01:00,45.7,41.8,30.14,SW,227,0.0,0.0,86,0.00,,CLR,0.00,VWS V14.00,2013-05-25 10:01:00,
2013-05-25 06:06:00,45.2,41.3,30.14,SW,226,0.0,0.0,86,0.00,,CLR,0.00,VWS V14.00,2013-05-25 10:06:00,
2013-05-25 06:11:00,44.7,41.1,30.14,SW,226,0.0,2.0,87,0.00,,CLR,0.00,VWS V14.00,2013-05-25 10:11:00,
2013-05-25 06:16:00,44.6,40.7,30.14,SSW,209,0.0,2.0,86,0.00,,CLR,0.00,VWS V14.00,2013-05-25 10:16:00,
2013-05-25 06:21:00,44.6,41.0,30.14,SSW,209,0.0,2.0,87,0.00,,CLR,0.00,VWS V14.00,2013-05-25 10:21:00,
2013-05-25 06:26:00,44.5,41.2,30.14,SSW,212,0.0,2.0,88,0.00,,CLR,0.00,VWS V14.00,2013-05-25 10:26:00,
2013-05-25 06:31:00,44.2,40.6,30.15,SSW,212,0.0,0.0,87,0.00,,CLR,0.00,VWS V14.00,2013-05-25 10:31:00,
2013-05-25 06:36:00,44.2,40.9,30.15,SSW,212,0.0,0.0,88,0.00,,CLR,0.00,VWS V14.00,2013-05-25 10:36:00,
2013-05-25 06:41:00,43.9,40.6,30.15,SW,222,0.0,1.0,88,0.00,,CLR,0.00,VWS V14.00,2013-05-25 10:41:00,
2013-05-25 06:46:00,43.8,40.5,30.16,SW,231,0.0,2.0,88,0.00,,CLR,0.00,VWS V14.00,2013-05-25 10:46:00,
2013-05-25 06:51:00,43.8,40.5,30.16,SW,228,0.0,2.0,88,0.00,,CLR,0.00,VWS V14.00,2013-05-25 10:51:00,
2013-05-25 06:56:00,43.7,40.4,30.16,SW,228,0.0,2.0,88,0.00,,CLR,0.00,VWS V14.00,2013-05-25 10:56:00,
2013-05-25 07:01:00,43.8,40.5,30.16,SW,228,0.0,1.0,88,0.00,,CLR,0.00,VWS V14.00,2013-05-25 11:01:00,
2013-05-25 07:06:00,44.1,40.8,30.16,SW,228,0.0,1.0,88,0.00,,CLR,0.00,VWS V14.00,2013-05-25 11:06:00,
2013-05-25 07:11:00,44.4,41.1,30.16,SW,228,0.0,1.0,88,0.00,,CLR,0.00,VWS V14.00,2013-05-25 11:11:00,
2013-05-25 07:16:00,44.7,41.4,30.17,SW,228,0.0,1.0,88,0.00,,CLR,0.00,VWS V14.00,2013-05-25 11:16:00,
2013-05-25 07:20:00,45.0,41.7,30.17,SW,228,0.0,1.0,88,0.00,,CLR,0.00,VWS V14.00,2013-05-25 11:20:00,
2013-05-25 07:25:00,45.2,41.9,30.17,SW,228,0.0,1.0,88,0.00,,CLR,0.00,VWS V14.00,2013-05-25 11:25:00,
2013-05-25 07:30:00,45.6,42.0,30.18,SW,234,0.0,1.0,87,0.00,,CLR,0.00,VWS V14.00,2013-05-25 11:30:00,
2013-05-25 07:35:00,46.1,42.5,30.18,SW,234,0.0,1.0,87,0.00,,CLR,0.00,VWS V14.00,2013-05-25 11:35:00,
2013-05-25 07:40:00,46.7,43.0,30.18,SW,234,0.0,1.0,87,0.00,,CLR,0.00,VWS V14.00,2013-05-25 11:40:00,
2013-05-25 07:45:00,47.5,43.8,30.19,SW,234,0.0,1.0,87,0.00,,CLR,0.00,VWS V14.00,2013-05-25 11:45:00,
2013-05-25 07:50:00,48.6,44.0,30.19,SW,233,0.0,1.0,84,0.00,,CLR,0.00,VWS V14.00,2013-05-25 11:50:00,
2013-05-25 07:55:00,49.8,44.8,30.19,SW,233,0.0,1.0,83,0.00,,CLR,0.00,VWS V14.00,2013-05-25 11:55:00,
2013-05-25 08:00:00,50.9,45.6,30.19,SW,234,0.0,0.0,82,0.00,,CLR,0.00,VWS V14.00,2013-05-25 12:00:00,
2013-05-25 08:05:00,51.4,45.5,30.19,SW,234,0.0,0.0,80,0.00,,CLR,0.00,VWS V14.00,2013-05-25 12:05:00,
2013-05-25 08:10:00,51.7,46.1,30.19,SW,234,0.0,0.0,81,0.00,,CLR,0.00,VWS V14.00,2013-05-25 12:10:00,
2013-05-25 08:15:00,52.1,45.8,30.20,SW,233,0.0,0.0,79,0.00,,CLR,0.00,VWS V14.00,2013-05-25 12:15:00,
2013-05-25 08:20:00,52.6,46.6,30.20,SW,235,0.0,0.0,80,0.00,,CLR,0.00,VWS V14.00,2013-05-25 12:20:00,
2013-05-25 08:25:00,53.6,47.3,30.20,SW,232,0.0,0.0,79,0.00,,CLR,0.00,VWS V14.00,2013-05-25 12:25:00,
2013-05-25 08:30:00,55.0,47.2,30.20,SW,235,0.0,0.0,75,0.00,,CLR,0.00,VWS V14.00,2013-05-25 12:30:00,
2013-05-25 08:35:00,56.2,48.8,30.20,WSW,239,0.0,0.0,76,0.00,,CLR,0.00,VWS V14.00,2013-05-25 12:35:00,
2013-05-25 08:40:00,57.6,48.7,30.20,WSW,241,0.0,0.0,72,0.00,,CLR,0.00,VWS V14.00,2013-05-25 12:40:00,
2013-05-25 08:45:00,58.4,48.3,30.20,WSW,242,0.0,0.0,69,0.00,,CLR,0.00,VWS V14.00,2013-05-25 12:45:00,
2013-05-25 08:50:00,58.9,48.0,30.20,WSW,243,0.0,0.0,67,0.00,,CLR,0.00,VWS V14.00,2013-05-25 12:50:00,
2013-05-25 08:55:00,59.0,48.5,30.20,WSW,242,0.0,0.0,68,0.00,,CLR,0.00,VWS V14.00,2013-05-25 12:55:00,
2013-05-25 09:00:00,59.2,48.7,30.21,WSW,243,0.0,0.0,68,0.00,,CLR,0.00,VWS V14.00,2013-05-25 13:00:00,
2013-05-25 09:05:00,59.2,48.7,30.21,WSW,252,0.0,0.0,68,0.00,,CLR,0.00,VWS V14.00,2013-05-25 13:05:00,
2013-05-25 09:10:00,59.2,49.0,30.21,WSW,253,0.0,0.0,69,0.00,,CLR,0.00,VWS V14.00,2013-05-25 13:10:00,
2013-05-25 09:15:00,59.4,49.2,30.21,NNW,336,0.0,4.0,69,0.00,,CLR,0.00,VWS V14.00,2013-05-25 13:15:00,
2013-05-25 09:20:00,59.5,48.5,30.21,NW,305,0.0,4.0,67,0.00,,CLR,0.00,VWS V14.00,2013-05-25 13:20:00,
2013-05-25 09:25:00,59.5,47.7,30.21,SW,224,0.0,4.0,65,0.00,,CLR,0.00,VWS V14.00,2013-05-25 13:25:00,
2013-05-25 09:30:00,59.6,47.8,30.21,NNW,343,0.0,0.0,65,0.00,,CLR,0.00,VWS V14.00,2013-05-25 13:30:00,
2013-05-25 09:35:00,59.8,46.8,30.21,SW,233,0.0,3.0,62,0.00,,CLR,0.00,VWS V14.00,2013-05-25 13:35:00,
2013-05-25 09:40:00,60.0,47.0,30.21,NNW,342,0.0,3.0,62,0.00,,CLR,0.00,VWS V14.00,2013-05-25 13:40:00,
2013-05-25 09:45:00,60.5,46.1,30.21,NNW,346,1.0,5.0,59,0.00,,CLR,0.00,VWS V14.00,2013-05-25 13:45:00,
2013-05-25 09:50:00,60.9,46.5,30.21,North,1,0.0,5.0,59,0.00,,CLR,0.00,VWS V14.00,2013-05-25 13:50:00,
2013-05-25 09:55:00,61.4,47.0,30.21,NW,323,0.0,5.0,59,0.00,,CLR,0.00,VWS V14.00,2013-05-25 13:55:00,
2013-05-25 10:00:00,61.7,46.8,30.21,NW,321,0.0,0.0,58,0.00,,CLR,0.00,VWS V14.00,2013-05-25 14:00:00,
2013-05-25 10:05:00,62.0,47.1,30.21,SSW,212,0.0,1.0,58,0.00,,CLR,0.00,VWS V14.00,2013-05-25 14:05:00,
2013-05-25 10:10:00,62.3,46.9,30.21,NW,311,0.0,3.0,57,0.00,,CLR,0.00,VWS V14.00,2013-05-25 14:10:00,
2013-05-25 10:15:00,62.4,46.5,30.20,NW,311,0.0,3.0,56,0.00,,CLR,0.00,VWS V14.00,2013-05-25 14:15:00,
2013-05-25 10:20:00,62.7,48.2,30.20,West,264,0.0,3.0,59,0.00,,CLR,0.00,VWS V14.00,2013-05-25 14:20:00,
2013-05-25 10:25:00,63.0,47.5,30.20,West,264,0.0,3.0,57,0.00,,CLR,0.00,VWS V14.00,2013-05-25 14:25:00,
2013-05-25 10:30:00,63.7,47.2,30.20,SW,230,1.0,3.0,55,0.00,,CLR,0.00,VWS V14.00,2013-05-25 14:30:00,
2013-05-25 10:35:00,63.7,45.2,30.20,SW,233,0.0,3.0,51,0.00,,CLR,0.00,VWS V14.00,2013-05-25 14:35:00,
2013-05-25 10:40:00,63.8,45.3,30.20,WSW,239,0.0,3.0,51,0.00,,CLR,0.00,VWS V14.00,2013-05-25 14:40:00,
2013-05-25 10:45:00,64.2,46.2,30.20,WSW,238,0.0,3.0,52,0.00,,CLR,0.00,VWS V14.00,2013-05-25 14:45:00,
2013-05-25 10:50:00,64.5,45.5,30.20,WSW,239,0.0,3.0,50,0.00,,CLR,0.00,VWS V14.00,2013-05-25 14:50:00,
2013-05-25 10:55:00,65.0,46.5,30.20,NNW,348,0.0,3.0,51,0.00,,CLR,0.00,VWS V14.00,2013-05-25 14:55:00,
2013-05-25 11:00:00,65.1,45.5,30.20,NW,315,0.0,0.0,49,0.00,,CLR,0.00,VWS V14.00,2013-05-25 15:00:00,
2013-05-25 11:06:00,65.2,47.7,30.20,WSW,252,0.0,4.0,53,0.00,,CLR,0.00,VWS V14.00,2013-05-25 15:06:00,
2013-05-25 11:11:00,65.4,46.8,30.20,SW,229,0.0,4.0,51,0.00,,CLR,0.00,VWS V14.00,2013-05-25 15:11:00,
2013-05-25 11:16:00,65.6,46.5,30.20,SW,229,0.0,4.0,50,0.00,,CLR,0.00,VWS V14.00,2013-05-25 15:16:00,
2013-05-25 11:21:00,65.8,46.7,30.20,SW,231,2.0,4.0,50,0.00,,CLR,0.00,VWS V14.00,2013-05-25 15:21:00,
2013-05-25 11:26:00,66.0,46.8,30.20,WSW,243,1.0,4.0,50,0.00,,CLR,0.00,VWS V14.00,2013-05-25 15:26:00,
2013-05-25 11:31:00,66.8,47.0,30.19,WSW,246,0.0,1.0,49,0.00,,CLR,0.00,VWS V14.00,2013-05-25 15:31:00,
2013-05-25 11:36:00,66.9,46.6,30.19,WSW,243,0.0,1.0,48,0.00,,CLR,0.00,VWS V14.00,2013-05-25 15:36:00,
2013-05-25 11:41:00,66.7,45.3,30.19,WSW,241,0.0,1.0,46,0.00,,CLR,0.00,VWS V14.00,2013-05-25 15:41:00,
2013-05-25 11:46:00,66.8,45.9,30.19,WSW,245,0.0,4.0,47,0.00,,CLR,0.00,VWS V14.00,2013-05-25 15:46:00,
2013-05-25 11:51:00,67.0,45.6,30.19,West,265,0.0,4.0,46,0.00,,CLR,0.00,VWS V14.00,2013-05-25 15:51:00,
2013-05-25 11:56:00,67.6,47.8,30.19,SW,215,0.0,4.0,49,0.00,,CLR,0.00,VWS V14.00,2013-05-25 15:56:00,
2013-05-25 12:01:00,68.0,46.5,30.20,SW,221,0.0,0.0,46,0.00,,CLR,0.00,VWS V14.00,2013-05-25 16:01:00,
2013-05-25 12:06:00,68.2,46.1,30.20,NNE,14,0.0,3.0,45,0.00,,CLR,0.00,VWS V14.00,2013-05-25 16:06:00,
2013-05-25 12:11:00,68.4,46.8,30.20,East,87,0.0,3.0,46,0.00,,CLR,0.00,VWS V14.00,2013-05-25 16:11:00,
2013-05-25 12:16:00,68.8,49.4,30.20,SE,141,0.0,3.0,50,0.00,,CLR,0.00,VWS V14.00,2013-05-25 16:16:00,
2013-05-25 12:21:00,69.2,47.6,30.20,WSW,244,1.0,3.0,46,0.00,,CLR,0.00,VWS V14.00,2013-05-25 16:21:00,
2013-05-25 12:26:00,69.1,48.6,30.20,WSW,248,1.0,3.0,48,0.00,,CLR,0.00,VWS V14.00,2013-05-25 16:26:00,
2013-05-25 12:31:00,69.0,47.4,30.19,WSW,249,0.0,2.0,46,0.00,,CLR,0.00,VWS V14.00,2013-05-25 16:31:00,
2013-05-25 12:36:00,69.2,50.3,30.19,SW,227,0.0,4.0,51,0.00,,CLR,0.00,VWS V14.00,2013-05-25 16:36:00,
2013-05-25 12:41:00,69.8,50.3,30.19,SE,141,0.0,4.0,50,0.00,,CLR,0.00,VWS V14.00,2013-05-25 16:41:00,
2013-05-25 12:46:00,70.0,49.4,30.17,WSW,255,1.0,5.0,48,0.00,,CLR,0.00,VWS V14.00,2013-05-25 16:46:00,
2013-05-25 12:51:00,69.9,49.3,30.17,SW,226,1.0,6.0,48,0.00,,CLR,0.00,VWS V14.00,2013-05-25 16:51:00,
2013-05-25 12:56:00,70.5,51.0,30.17,SE,135,0.0,6.0,50,0.00,,CLR,0.00,VWS V14.00,2013-05-25 16:56:00,
2013-05-25 13:01:00,71.2,52.2,30.16,SSW,192,0.0,1.0,51,0.00,,CLR,0.00,VWS V14.00,2013-05-25 17:01:00,
2013-05-25 13:06:00,71.3,52.3,30.16,SW,218,4.0,4.0,51,0.00,,CLR,0.00,VWS V14.00,2013-05-25 17:06:00,
2013-05-25 13:11:00,71.3,55.3,30.16,SW,226,0.0,5.0,57,0.00,,CLR,0.00,VWS V14.00,2013-05-25 17:11:00,
2013-05-25 13:16:00,71.6,49.2,30.16,SW,229,0.0,5.0,45,0.00,,CLR,0.00,VWS V14.00,2013-05-25 17:16:00,
2013-05-25 13:21:00,71.5,50.8,30.16,SW,229,0.0,5.0,48,0.00,,CLR,0.00,VWS V14.00,2013-05-25 17:21:00,
2013-05-25 13:26:00,71.4,50.7,30.16,WSW,244,0.0,5.0,48,0.00,,CLR,0.00,VWS V14.00,2013-05-25 17:26:00,
2013-05-25 13:31:00,71.7,51.0,30.15,North,4,2.0,2.0,48,0.00,,CLR,0.00,VWS V14.00,2013-05-25 17:31:00,
2013-05-25 13:36:00,72.0,49.5,30.15,SW,229,2.0,2.0,45,0.00,,CLR,0.00,VWS V14.00,2013-05-25 17:36:00,
2013-05-25 13:41:00,72.0,50.1,30.15,SW,231,1.0,5.0,46,0.00,,CLR,0.00,VWS V14.00,2013-05-25 17:41:00,
2013-05-25 13:46:00,72.0,48.3,30.14,SW,231,0.0,5.0,43,0.00,,CLR,0.00,VWS V14.00,2013-05-25 17:46:00,
2013-05-25 13:51:00,72.1,50.2,30.14,SW,229,1.0,5.0,46,0.00,,CLR,0.00,VWS V14.00,2013-05-25 17:51:00,
2013-05-25 13:56:00,72.6,52.4,30.14,SSW,211,0.0,5.0,49,0.00,,CLR,0.00,VWS V14.00,2013-05-25 17:56:00,
2013-05-25 14:01:00,73.0,52.2,30.13,West,269,0.0,2.0,48,0.00,,CLR,0.00,VWS V14.00,2013-05-25 18:01:00,
2013-05-25 14:06:00,73.3,50.7,30.13,WSW,250,0.0,5.0,45,0.00,,CLR,0.00,VWS V14.00,2013-05-25 18:06:00,
2013-05-25 14:11:00,73.5,51.5,30.13,North,359,0.0,5.0,46,0.00,,CLR,0.00,VWS V14.00,2013-05-25 18:11:00,
2013-05-25 14:16:00,73.9,50.6,30.13,SW,222,2.0,5.0,44,0.00,,CLR,0.00,VWS V14.00,2013-05-25 18:16:00,
2013-05-25 14:21:00,73.9,51.8,30.13,SW,236,0.0,5.0,46,0.00,,CLR,0.00,VWS V14.00,2013-05-25 18:21:00,
2013-05-25 14:26:00,73.9,50.0,30.13,WSW,238,0.0,5.0,43,0.00,,CLR,0.00,VWS V14.00,2013-05-25 18:26:00,
2013-05-25 14:31:00,73.9,51.2,30.12,SW,233,2.0,4.0,45,0.00,,CLR,0.00,VWS V14.00,2013-05-25 18:31:00,
2013-05-25 14:36:00,73.7,49.8,30.12,NNW,347,4.0,11.0,43,0.00,,CLR,0.00,VWS V14.00,2013-05-25 18:36:00,
2013-05-25 14:41:00,73.6,51.6,30.12,North,1,0.0,11.0,46,0.00,,CLR,0.00,VWS V14.00,2013-05-25 18:41:00,
2013-05-25 14:46:00,74.0,50.7,30.11,SW,236,0.0,11.0,44,0.00,,CLR,0.00,VWS V14.00,2013-05-25 18:46:00,
2013-05-25 14:51:00,74.1,52.0,30.11,WNW,290,0.0,11.0,46,0.00,,CLR,0.00,VWS V14.00,2013-05-25 18:51:00,
2013-05-25 14:56:00,74.7,51.4,30.11,WSW,238,0.0,11.0,44,0.00,,CLR,0.00,VWS V14.00,2013-05-25 18:56:00,
2013-05-25 15:01:00,75.3,51.9,30.10,WNW,290,1.0,1.0,44,0.00,,CLR,0.00,VWS V14.00,2013-05-25 19:01:00,
2013-05-25 15:05:00,75.4,50.1,30.10,WNW,290,0.0,1.0,41,0.00,,CLR,0.00,VWS V14.00,2013-05-25 19:05:00,
2013-05-25 15:10:00,75.5,51.5,30.10,WSW,257,0.0,1.0,43,0.00,,CLR,0.00,VWS V14.00,2013-05-25 19:10:00,
2013-05-25 15:15:00,76.0,50.6,30.10,WSW,243,0.0,4.0,41,0.00,,CLR,0.00,VWS V14.00,2013-05-25 19:15:00,
2013-05-25 15:20:00,75.9,49.9,30.10,SW,233,0.0,4.0,40,0.00,,CLR,0.00,VWS V14.00,2013-05-25 19:20:00,
2013-05-25 15:25:00,75.9,49.9,30.10,WSW,239,1.0,6.0,40,0.00,,CLR,0.00,VWS V14.00,2013-05-25 19:25:00,
2013-05-25 15:30:00,75.8,49.8,30.09,SW,233,0.0,6.0,40,0.00,,CLR,0.00,VWS V14.00,2013-05-25 19:30:00,
2013-05-25 15:35:00,76.1,49.4,30.09,SW,234,0.0,6.0,39,0.00,,CLR,0.00,VWS V14.00,2013-05-25 19:35:00,
2013-05-25 15:40:00,75.9,49.2,30.09,NW,305,1.0,6.0,39,0.00,,CLR,0.00,VWS V14.00,2013-05-25 19:40:00,
2013-05-25 15:45:00,75.8,53.6,30.09,South,184,2.0,6.0,46,0.00,,CLR,0.00,VWS V14.00,2013-05-25 19:45:00,
2013-05-25 15:50:00,75.9,49.9,30.09,SW,235,1.0,6.0,40,0.00,,CLR,0.00,VWS V14.00,2013-05-25 19:50:00,
2013-05-25 15:56:00,75.7,52.3,30.09,SW,225,0.0,6.0,44,0.00,,CLR,0.00,VWS V14.00,2013-05-25 19:56:00,
2013-05-25 16:00:00,75.7,51.0,30.09,SW,225,0.0,2.0,42,0.00,,CLR,0.00,VWS V14.00,2013-05-25 20:00:00,
2013-05-25 16:05:00,75.7,50.4,30.09,SW,233,3.0,4.0,41,0.00,,CLR,0.00,VWS V14.00,2013-05-25 20:05:00,
2013-05-25 16:10:00,76.0,51.9,30.09,WSW,243,0.0,4.0,43,0.00,,CLR,0.00,VWS V14.00,2013-05-25 20:10:00,
2013-05-25 16:15:00,76.1,50.0,30.08,WSW,238,2.0,7.0,40,0.00,,CLR,0.00,VWS V14.00,2013-05-25 20:15:00,
2013-05-25 16:20:00,76.2,50.1,30.08,WSW,237,0.0,7.0,40,0.00,,CLR,0.00,VWS V14.00,2013-05-25 20:20:00,
2013-05-25 16:26:00,76.0,47.2,30.08,WSW,243,0.0,7.0,36,0.00,,CLR,0.00,VWS V14.00,2013-05-25 20:26:00,
2013-05-25 16:31:00,75.8,50.5,30.08,WSW,242,0.0,1.0,41,0.00,,CLR,0.00,VWS V14.00,2013-05-25 20:31:00,
2013-05-25 16:36:00,75.8,51.1,30.08,SW,229,0.0,2.0,42,0.00,,CLR,0.00,VWS V14.00,2013-05-25 20:36:00,
2013-05-25 16:41:00,76.2,51.5,30.08,SW,221,0.0,9.0,42,0.00,,CLR,0.00,VWS V14.00,2013-05-25 20:41:00,
2013-05-25 16:45:00,76.4,51.6,30.08,SW,235,0.0,9.0,42,0.00,,CLR,0.00,VWS V14.00,2013-05-25 20:45:00,
2013-05-25 16:50:00,76.3,51.5,30.08,SW,235,0.0,9.0,42,0.00,,CLR,0.00,VWS V14.00,2013-05-25 20:50:00,
2013-05-25 16:55:00,76.1,51.4,30.08,SW,231,0.0,9.0,42,0.00,,CLR,0.00,VWS V14.00,2013-05-25 20:55:00,
2013-05-25 17:01:00,76.1,53.2,30.07,SW,233,0.0,1.0,45,0.00,,CLR,0.00,VWS V14.00,2013-05-25 21:01:00,
2013-05-25 17:05:00,76.4,51.6,30.07,SW,216,0.0,5.0,42,0.00,,CLR,0.00,VWS V14.00,2013-05-25 21:05:00,
2013-05-25 17:10:00,76.5,53.0,30.07,WSW,243,1.0,5.0,44,0.00,,CLR,0.00,VWS V14.00,2013-05-25 21:10:00,
2013-05-25 17:16:00,76.6,53.1,30.07,WSW,243,1.0,5.0,44,0.00,,CLR,0.00,VWS V14.00,2013-05-25 21:16:00,
2013-05-25 17:21:00,76.5,52.4,30.07,SSE,150,0.0,5.0,43,0.00,,CLR,0.00,VWS V14.00,2013-05-25 21:21:00,
2013-05-25 17:26:00,76.4,52.3,30.07,SSE,162,0.0,5.0,43,0.00,,CLR,0.00,VWS V14.00,2013-05-25 21:26:00,
2013-05-25 17:31:00,76.2,52.7,30.07,SSW,203,2.0,3.0,44,0.00,,CLR,0.00,VWS V14.00,2013-05-25 21:31:00,
2013-05-25 17:36:00,76.0,51.3,30.07,WSW,243,1.0,3.0,42,0.00,,CLR,0.00,VWS V14.00,2013-05-25 21:36:00,
2013-05-25 17:41:00,76.0,53.2,30.07,SW,235,1.0,3.0,45,0.00,,CLR,0.00,VWS V14.00,2013-05-25 21:41:00,
2013-05-25 17:46:00,75.9,53.1,30.07,WSW,257,2.0,3.0,45,0.00,,CLR,0.00,VWS V14.00,2013-05-25 21:46:00,
2013-05-25 17:51:00,75.9,53.1,30.07,ESE,110,0.0,4.0,45,0.00,,CLR,0.00,VWS V14.00,2013-05-25 21:51:00,
2013-05-25 17:56:00,75.7,51.0,30.07,SSW,204,0.0,4.0,42,0.00,,CLR,0.00,VWS V14.00,2013-05-25 21:56:00,
2013-05-25 18:01:00,75.6,53.4,30.07,SW,236,0.0,1.0,46,0.00,,CLR,0.00,VWS V14.00,2013-05-25 22:01:00,
2013-05-25 18:06:00,75.7,52.3,30.07,SW,236,0.0,1.0,44,0.00,,CLR,0.00,VWS V14.00,2013-05-25 22:06:00,
2013-05-25 18:11:00,75.9,50.5,30.07,WSW,239,0.0,1.0,41,0.00,,CLR,0.00,VWS V14.00,2013-05-25 22:11:00,
2013-05-25 18:16:00,76.2,53.9,30.07,SW,232,0.0,2.0,46,0.00,,CLR,0.00,VWS V14.00,2013-05-25 22:16:00,
2013-05-25 18:21:00,76.1,52.6,30.07,WSW,249,0.0,2.0,44,0.00,,CLR,0.00,VWS V14.00,2013-05-25 22:21:00,
2013-05-25 18:26:00,75.9,51.8,30.07,SW,229,2.0,7.0,43,0.00,,CLR,0.00,VWS V14.00,2013-05-25 22:26:00,
2013-05-25 18:31:00,75.8,53.0,30.07,SW,232,0.0,0.0,45,0.00,,CLR,0.00,VWS V14.00,2013-05-25 22:31:00,
2013-05-25 18:36:00,75.9,53.1,30.07,WSW,243,0.0,1.0,45,0.00,,CLR,0.00,VWS V14.00,2013-05-25 22:36:00,
2013-05-25 18:41:00,76.0,54.3,30.07,WSW,247,1.0,2.0,47,0.00,,CLR,0.00,VWS V14.00,2013-05-25 22:41:00,
2013-05-25 18:46:00,75.9,51.8,30.07,WSW,244,0.0,2.0,43,0.00,,CLR,0.00,VWS V14.00,2013-05-25 22:46:00,
2013-05-25 18:51:00,75.8,52.4,30.07,SW,233,0.0,5.0,44,0.00,,CLR,0.00,VWS V14.00,2013-05-25 22:51:00,
2013-05-25 18:56:00,75.7,52.3,30.07,WSW,251,0.0,5.0,44,0.00,,CLR,0.00,VWS V14.00,2013-05-25 22:56:00,
2013-05-25 19:01:00,75.5,53.3,30.07,WSW,245,0.0,3.0,46,0.00,,CLR,0.00,VWS V14.00,2013-05-25 23:01:00,
2013-05-25 19:06:00,75.5,53.9,30.07,WSW,245,0.0,3.0,47,0.00,,CLR,0.00,VWS V14.00,2013-05-25 23:06:00,
2013-05-25 19:11:00,75.3,53.1,30.07,WSW,245,0.0,3.0,46,0.00,,CLR,0.00,VWS V14.00,2013-05-25 23:11:00,
2013-05-25 19:16:00,75.1,52.9,30.07,WSW,238,1.0,3.0,46,0.00,,CLR,0.00,VWS V14.00,2013-05-25 23:16:00,
2013-05-25 19:21:00,74.8,53.2,30.07,SW,218,0.0,4.0,47,0.00,,CLR,0.00,VWS V14.00,2013-05-25 23:21:00,
2013-05-25 19:26:00,74.5,53.5,30.07,SW,218,0.0,4.0,48,0.00,,CLR,0.00,VWS V14.00,2013-05-25 23:26:00,
2013-05-25 19:31:00,74.2,53.8,30.07,SW,219,0.0,0.0,49,0.00,,CLR,0.00,VWS V14.00,2013-05-25 23:31:00,
2013-05-25 19:36:00,73.9,54.7,30.07,SW,218,0.0,0.0,51,0.00,,CLR,0.00,VWS V14.00,2013-05-25 23:36:00,
2013-05-25 19:41:00,73.4,54.7,30.07,SW,218,0.0,1.0,52,0.00,,CLR,0.00,VWS V14.00,2013-05-25 23:41:00,
2013-05-25 19:46:00,73.0,55.4,30.07,SW,218,0.0,1.0,54,0.00,,CLR,0.00,VWS V14.00,2013-05-25 23:46:00,
2013-05-25 19:51:00,72.4,55.3,30.07,West,277,0.0,1.0,55,0.00,,CLR,0.00,VWS V14.00,2013-05-25 23:51:00,
2013-05-25 19:56:00,72.0,54.0,30.07,West,277,0.0,1.0,53,0.00,,CLR,0.00,VWS V14.00,2013-05-25 23:56:00,
2013-05-25 20:01:00,71.7,54.2,30.08,West,277,0.0,0.0,54,0.00,,CLR,0.00,VWS V14.00,2013-05-26 00:01:00,
2013-05-25 20:06:00,71.5,54.0,30.08,West,277,0.0,0.0,54,0.00,,CLR,0.00,VWS V14.00,2013-05-26 00:06:00,
2013-05-25 20:11:00,71.3,51.2,30.08,West,277,0.0,0.0,49,0.00,,CLR,0.00,VWS V14.00,2013-05-26 00:11:00,
2013-05-25 20:16:00,71.1,52.1,30.08,West,277,0.0,1.0,51,0.00,,CLR,0.00,VWS V14.00,2013-05-26 00:16:00,
2013-05-25 20:21:00,70.8,50.2,30.08,NNW,328,0.0,3.0,48,0.00,,CLR,0.00,VWS V14.00,2013-05-26 00:21:00,
2013-05-25 20:26:00,70.5,47.6,30.08,NNW,328,0.0,3.0,44,0.00,,CLR,0.00,VWS V14.00,2013-05-26 00:26:00,
2013-05-25 20:31:00,70.5,47.0,30.08,NNW,328,0.0,1.0,43,0.00,,CLR,0.00,VWS V14.00,2013-05-26 00:31:00,
2013-05-25 20:36:00,70.4,46.9,30.08,NNW,328,0.0,1.0,43,0.00,,CLR,0.00,VWS V14.00,2013-05-26 00:36:00,
2013-05-25 20:41:00,70.1,46.6,30.08,NNW,328,0.0,1.0,43,0.00,,CLR,0.00,VWS V14.00,2013-05-26 00:41:00,
2013-05-25 20:46:00,69.8,45.1,30.08,NNW,328,0.0,1.0,41,0.00,,CLR,0.00,VWS V14.00,2013-05-26 00:46:00,
2013-05-25 20:51:00,69.4,46.6,30.08,NNW,328,0.0,1.0,44,0.00,,CLR,0.00,VWS V14.00,2013-05-26 00:51:00,
2013-05-25 20:56:00,68.7,45.3,30.08,NNW,328,0.0,1.0,43,0.00,,CLR,0.00,VWS V14.00,2013-05-26 00:56:00,
2013-05-25 21:01:00,68.1,47.1,30.08,NNW,328,0.0,0.0,47,0.00,,CLR,0.00,VWS V14.00,2013-05-26 01:01:00,
2013-05-25 21:06:00,67.5,44.2,30.08,NNW,328,0.0,0.0,43,0.00,,CLR,0.00,VWS V14.00,2013-05-26 01:06:00,
2013-05-25 21:11:00,66.9,43.7,30.08,NNW,328,0.0,0.0,43,0.00,,CLR,0.00,VWS V14.00,2013-05-26 01:11:00,
2013-05-25 21:16:00,66.7,42.9,30.08,NNW,328,0.0,0.0,42,0.00,,CLR,0.00,VWS V14.00,2013-05-26 01:16:00,
2013-05-25 21:21:00,66.5,49.8,30.08,NNW,328,0.0,0.0,55,0.00,,CLR,0.00,VWS V14.00,2013-05-26 01:21:00,
2013-05-25 21:26:00,65.6,51.4,30.08,NNW,328,0.0,0.0,60,0.00,,CLR,0.00,VWS V14.00,2013-05-26 01:26:00,
2013-05-25 21:31:00,64.7,52.7,30.08,NNW,328,0.0,0.0,65,0.00,,CLR,0.00,VWS V14.00,2013-05-26 01:31:00,
2013-05-25 21:36:00,63.8,53.0,30.08,NNW,328,0.0,0.0,68,0.00,,CLR,0.00,VWS V14.00,2013-05-26 01:36:00,
2013-05-25 21:41:00,63.0,49.8,30.08,NNW,328,0.0,0.0,62,0.00,,CLR,0.00,VWS V14.00,2013-05-26 01:41:00,
2013-05-25 21:46:00,62.4,51.7,30.09,NNW,328,0.0,0.0,68,0.00,,CLR,0.00,VWS V14.00,2013-05-26 01:46:00,
2013-05-25 21:51:00,62.0,51.3,30.09,NNW,328,0.0,0.0,68,0.00,,CLR,0.00,VWS V14.00,2013-05-26 01:51:00,
2013-05-25 21:56:00,61.5,50.0,30.09,NNW,328,0.0,0.0,66,0.00,,CLR,0.00,VWS V14.00,2013-05-26 01:56:00,
2013-05-25 22:01:00,61.2,51.3,30.09,NNW,328,0.0,0.0,70,0.00,,CLR,0.00,VWS V14.00,2013-05-26 02:01:00,
2013-05-25 22:06:00,61.0,52.3,30.09,NNW,328,0.0,0.0,73,0.00,,CLR,0.00,VWS V14.00,2013-05-26 02:06:00,
2013-05-25 22:11:00,60.7,52.4,30.09,NNW,328,0.0,3.0,74,0.00,,CLR,0.00,VWS V14.00,2013-05-26 02:11:00,
2013-05-25 22:16:00,60.3,49.7,30.09,NNW,328,0.0,3.0,68,0.00,,CLR,0.00,VWS V14.00,2013-05-26 02:16:00,
2013-05-25 22:21:00,60.3,52.3,30.09,NNW,328,0.0,3.0,75,0.00,,CLR,0.00,VWS V14.00,2013-05-26 02:21:00,
2013-05-25 22:26:00,60.2,48.8,30.09,NNW,328,0.0,3.0,66,0.00,,CLR,0.00,VWS V14.00,2013-05-26 02:26:00,
2013-05-25 22:31:00,60.0,52.4,30.10,NNW,328,0.0,1.0,76,0.00,,CLR,0.00,VWS V14.00,2013-05-26 02:31:00,
2013-05-25 22:36:00,59.7,49.5,30.10,NNW,328,0.0,1.0,69,0.00,,CLR,0.00,VWS V14.00,2013-05-26 02:36:00,
2013-05-25 22:41:00,59.5,52.3,30.10,NNW,328,0.0,1.0,77,0.00,,CLR,0.00,VWS V14.00,2013-05-26 02:41:00,
2013-05-25 22:46:00,59.0,52.8,30.10,NNW,328,0.0,1.0,80,0.00,,CLR,0.00,VWS V14.00,2013-05-26 02:46:00,
2013-05-25 22:51:00,58.4,52.9,30.10,NNW,328,0.0,1.0,82,0.00,,CLR,0.00,VWS V14.00,2013-05-26 02:51:00,
2013-05-25 22:56:00,57.7,51.9,30.10,NNW,328,0.0,1.0,81,0.00,,CLR,0.00,VWS V14.00,2013-05-26 02:56:00,
2013-05-25 23:01:00,57.4,50.3,30.10,NNW,328,0.0,0.0,77,0.00,,CLR,0.00,VWS V14.00,2013-05-26 03:01:00,
2013-05-25 23:06:00,57.4,50.3,30.10,NNW,328,0.0,0.0,77,0.00,,CLR,0.00,VWS V14.00,2013-05-26 03:06:00,
2013-05-25 23:11:00,57.6,49.8,30.10,NNW,328,0.0,0.0,75,0.00,,CLR,0.00,VWS V14.00,2013-05-26 03:11:00,
2013-05-25 23:16:00,57.8,47.7,30.09,NNW,328,0.0,0.0,69,0.00,,CLR,0.00,VWS V14.00,2013-05-26 03:16:00,
2013-05-25 23:21:00,58.0,47.5,30.09,NNW,328,0.0,0.0,68,0.00,,CLR,0.00,VWS V14.00,2013-05-26 03:21:00,
2013-05-25 23:26:00,58.2,48.8,30.09,NNW,328,0.0,0.0,71,0.00,,CLR,0.00,VWS V14.00,2013-05-26 03:26:00,
2013-05-25 23:31:00,58.2,52.1,30.08,NNW,328,0.0,0.0,80,0.00,,CLR,0.00,VWS V14.00,2013-05-26 03:31:00,
2013-05-25 23:36:00,57.7,51.9,30.08,NNW,328,0.0,0.0,81,0.00,,CLR,0.00,VWS V14.00,2013-05-26 03:36:00,
2013-05-25 23:41:00,56.9,51.5,30.08,NNW,328,0.0,0.0,82,0.00,,CLR,0.00,VWS V14.00,2013-05-26 03:41:00,
2013-05-25 23:46:00,56.1,51.0,30.10,NNW,328,0.0,0.0,83,0.00,,CLR,0.00,VWS V14.00,2013-05-26 03:46:00,
2013-05-25 23:51:00,55.5,51.1,30.10,NNW,328,0.0,0.0,85,0.00,,CLR,0.00,VWS V14.00,2013-05-26 03:51:00,
2013-05-25 23:56:00,54.9,50.8,30.10,NNW,328,0.0,0.0,86,0.00,,CLR,0.00,VWS V14.00,2013-05-26 03:56:00,